Temperature
18 18 18 18 18 18 18 18 17 17 17 17 17 17 17 17 17 17 17 17 17 17 17 17 17 17 17 17 17 17 17 16 16 16 16 16 16 16 16 16 16 15 15
18 18 18 18 18 18 18 18 17 17 17 17 17 17 17 17 17 17 17 17 17 17 17 17 17 17 16 16 16 16 16 16 16 16 16 16 16 16 16 16 16 15 15
18 18 18 18 18 18 18 18 18 17 17 17 17 17 17 17 17 17 17 17 17 17 17 17 17 17 16 16 16 16 16 16 16 16 16 16 16 16 16 16 15 15 15
18 18 18 18 18 18 18 18 18 17 17 17 17 17 17 17 17 17 17 17 17 17 17 17 17 16 16 16 16 16 16 16 16 16 16 16 15 16 15 15 15 15 15
18 18 18 18 18 18 18 18 18 18 17 17 17 17 17 17 17 17 17 17 17 16 16 16 16 16 16 16 16 16 16 16 16 15 15 15 15 15 15 15 15 15 15
18 18 18 18 18 18 18 18 18 18 17 17 17 17 17 17 17 17 17 16 16 16 16 16 16 16 16 16 16 16 16 16 16 15 15 15 15 15 15 15 15 15 15
18 18 18 18 18 18 18 18 18 17 17 17 17 17 17 17 17 16 16 16 16 16 16 16 16 15 15 16 16 15 15 15 15 15 15 15 15 15 15 15 15 15 15
18 18 18 18 18 18 18 18 17 17 17 17 17 17 17 17 16 16 16 16 16 16 16 15 15 16 15 15 15 15 15 15 15 15 15 15 15 15 15 14 14 14 14
18 18 18 18 18 18 18 17 17 17 17 17 17 17 18 18 17 16 16 16 15 15 15 15 15 15 15 15 15 15 15 15 15 15 15 15 14 14 14 14 14 14 14
18 18 18 18 18 18 18 17 17 17 17 17 17 17 17 17 17 17 16 16 15 15 15 15 15 14 14 14 15 15 15 15 14 14 14 14 14 14 14 14 14 14 14
18 18 18 18 18 17 18 17 17 17 17 17 17 17 17 17 17 17 16 16 15 15 15 15 14 14 14 14 14 14 14 14 14 14 14 14 14 14 14 14 14 14 13
17 17 17 17 17 17 17 17 17 17 17 17 17 17 17 17 17 17 16 16 15 15 15 14 14 14 14 14 14 14 14 14 14 14 14 14 14 14 14 14 13 13 13
17 17 17 17 17 17 17 17 17 17 16 17 16 16 16 16 16 16 16 16 15 15 15 14 14 14 14 13 14 14 14 14 14 14 13 13 13 13 13 13 13 13 13
18 17 17 17 17 17 17 17 16 16 16 16 16 16 16 16 16 16 16 16 16 15 15 14 14 14 13 13 13 13 13 13 13 13 13 13 13 13 13 13 13 13 13
17 17 17 17 17 17 17 17 16 16 16 16 16 16 16 16 16 16 16 16 16 16 15 14 14 13 13 13 13 13 13 13 13 13 13 13 13 13 13 13 13 12 12
17 17 17 17 17 17 17 17 16 16 16 16 16 16 16 16 16 15 15 15 15 16 15 14 14 13 13 13 13 12 13 13 13 13 13 13 12 12 12 12 12 12 12
17 17 17 17 17 17 17 17 16 16 16 16 16 16 15 15 15 15 15 15 15 15 15 14 14 13 13 13 13 12 12 12 12 12 12 12 12 12 12 12 12 12 12
17 17 17 17 17 16 16 16 16 16 16 15 16 15 15 15 15 15 15 15 15 15 15 14 13 13 13 13 12 12 12 12 12 12 12 12 12 12 12 12 12 11 11
18 17 17 17 17 16 16 16 16 16 16 15 15 15 15 15 15 15 15 14 14 14 14 14 13 13 13 12 12 12 12 12 12 12 12 12 12 12 11 11 11 11 11
18 17 17 17 17 16 16 16 16 16 15 15 15 15 15 15 15 15 14 14 14 14 14 14 14 13 13 12 12 12 12 12 12 11 11 11 11 11 11 11 11 11 11
18 18 17 17 17 16 16 16 16 15 15 15 15 15 14 15 15 15 14 14 14 14 14 14 14 13 13 12 12 12 12 12 11 11 11 11 11 11 11 11 11 11 10
18 18 17 17 17 16 16 16 16 15 15 15 14 14 14 14 14 14 14 14 14 13 13 13 13 13 12 12 12 12 12 12 12 11 11 11 11 11 11 10 10 10 10
18 18 17 17 17 17 16 16 16 15 15 14 14 14 14 14 14 14 14 14 13 13 13 13 13 12 12 12 12 12 11 12 11 11 11 11 11 11 11 10 10 10 10
18 18 17 17 17 16 16 16 16 15 14 14 14 14 13 13 13 13 13 13 13 13 13 12 12 12 12 12 11 11 11 11 11 11 11 11 11 11 11 10 10 10 10
18 17 17 17 16 16 16 16 15 14 14 14 13 13 13 13 13 13 13 12 12 12 12 12 12 12 12 12 11 11 11 12 12 12 11 11 11 11 11 10 10 10 10
17 17 16 16 16 16 16 16 15 14 14 14 14 13 13 13 13 13 13 12 12 12 12 12 12 12 12 11 11 11 11 11 12 12 11 11 11 11 11 11 10 10 10
Wind_Speed
2 3 2 2 2 2 3 3 3 3 2 2 1 1 1 0 0 1 4 8 7 5 6 7 7 8 9 9 10 10 10 9 9 9 9 9 9 9 9 9 9 9 9
2 2 2 2 1 1 2 2 3 2 1 2 1 1 0 0 0 0 1 5 7 6 5 6 6 7 8 9 9 10 10 10 9 10 10 9 9 9 9 10 10 9 9
2 1 1 1 2 2 2 1 2 1 2 2 2 1 0 1 1 1 1 1 3 7 6 5 5 5 6 7 8 8 9 10 10 10 10 9 9 9 9 9 9 9 9
1 0 1 1 1 2 2 1 1 1 1 1 1 1 1 1 1 1 1 1 1 1 5 6 5 5 5 6 7 7 8 9 10 10 10 9 9 9 9 9 8 9 9
1 0 1 1 1 1 1 1 2 1 1 1 1 1 1 1 1 1 1 1 0 1 1 4 4 4 4 4 6 7 7 8 9 10 9 9 9 9 9 9 9 8 8
1 1 1 1 0 0 0 0 0 1 1 1 1 2 1 1 1 1 1 1 1 1 1 1 2 3 3 1 1 2 3 5 6 9 9 9 9 9 9 9 9 9 8
1 1 1 1 1 0 1 1 1 2 2 2 2 1 2 1 1 1 1 1 2 3 3 3 2 1 3 4 2 1 1 2 2 4 5 6 8 8 9 8 8 8 8
1 0 1 1 1 0 0 1 1 2 1 2 2 1 2 2 2 2 1 2 2 2 3 4 3 3 2 2 5 4 2 1 1 1 2 4 5 7 8 8 8 8 7
0 2 1 2 1 1 1 1 1 2 2 2 2 2 1 0 1 2 2 3 2 2 2 3 4 4 3 3 3 5 4 3 2 1 1 1 3 5 6 7 7 7 7
0 1 1 1 1 1 1 1 1 1 2 1 1 1 2 1 1 1 1 2 2 2 2 2 3 4 4 4 5 7 6 4 3 3 2 2 2 3 3 4 5 6 7
0 1 1 1 1 1 1 2 1 2 1 2 1 1 0 1 2 2 1 1 1 1 2 2 3 4 4 4 5 7 7 6 5 4 4 4 3 3 3 3 3 4 4
0 1 1 1 1 1 1 1 1 1 2 2 2 1 1 1 1 1 1 2 1 1 2 2 2 3 3 5 7 10 9 8 7 7 6 6 5 4 3 3 2 2 3
1 1 1 1 1 1 1 1 1 1 1 1 2 1 1 2 1 1 2 1 1 1 1 1 2 2 3 5 7 8 9 8 8 8 8 7 7 7 6 6 5 4 4
0 1 0 0 1 1 1 1 1 1 1 1 2 2 2 2 1 1 2 2 1 1 2 1 2 2 3 4 6 5 7 8 9 9 9 9 9 9 9 9 8 8 8
0 1 0 1 1 1 1 1 1 1 1 2 2 1 2 0 1 2 2 2 2 2 1 2 1 2 2 4 3 4 6 8 8 8 8 8 9 9 10 10 10 9 9
1 1 1 1 1 1 1 1 0 1 1 1 2 2 2 1 0 1 2 2 2 2 1 2 2 2 3 4 4 4 6 9 7 7 7 7 8 9 9 9 9 10 10
2 1 1 0 1 1 1 1 1 1 1 1 1 1 1 1 1 1 1 1 1 1 2 2 3 4 3 2 4 4 4 4 6 7 7 7 7 8 8 8 8 9 9
2 2 1 1 1 1 1 1 1 1 1 1 1 1 1 0 0 1 1 0 0 1 2 3 3 4 4 4 3 3 3 4 5 9 8 7 7 7 7 7 8 8 8
2 2 2 2 1 1 1 0 0 0 1 1 1 1 1 0 0 1 1 0 1 2 2 3 3 3 3 3 4 3 3 2 3 8 9 8 7 6 6 6 7 7 7
3 3 2 2 2 2 1 1 0 0 0 1 1 1 1 1 1 0 1 0 0 1 2 3 3 3 3 3 3 3 3 3 2 4 5 6 8 9 7 7 6 6 6
4 3 3 2 2 2 1 0 1 1 1 1 1 1 2 3 5 2 1 0 1 2 2 2 3 3 3 3 3 3 2 3 3 2 3 4 6 6 8 9 7 6 5
4 4 3 3 2 1 4 2 2 1 1 1 1 1 2 3 2 2 4 4 2 1 1 1 2 2 3 3 3 3 2 3 2 2 3 3 3 3 4 5 9 9 7
5 4 4 3 3 2 4 2 2 1 2 1 1 1 1 2 2 1 2 3 1 1 2 3 2 3 3 3 3 4 3 3 2 2 3 3 3 3 4 6 11 10 9
5 5 4 4 4 3 4 3 3 4 2 2 2 1 1 1 1 1 2 2 2 2 2 3 2 3 3 2 4 4 4 4 4 3 4 4 4 4 4 5 13 12 11
6 5 5 5 4 4 5 4 4 4 3 3 2 2 2 1 2 2 2 2 2 2 2 1 1 1 1 2 3 4 4 5 5 4 5 5 4 4 4 5 10 16 15
6 5 5 5 5 4 6 5 6 4 3 3 3 3 2 1 3 2 3 3 3 3 2 3 3 4 4 5 6 6 5 6 5 4 4 4 4 4 4 4 4 8 11
Wind_Direction
93 97 88 85 94 105 134 130 116 114 123 133 142 143 166 185 267 176 132 145 162 185 201 206 208 209 209 209 210 212 213 212 214 214 215 215 215 215 213 214 212 211 211
79 95 113 97 94 111 89 101 117 127 129 110 118 117 265 246 126 134 227 149 166 182 200 210 210 209 210 212 215 217 216 215 218 219 216 216 218 219 216 216 216 216 216
102 103 108 131 109 110 116 142 135 138 153 149 130 127 195 7 21 41 322 247 179 179 184 197 203 208 211 214 218 220 220 219 220 221 215 215 217 217 216 219 220 216 212
100 154 95 97 116 136 142 147 178 156 126 165 142 137 106 89 61 36 288 255 259 196 174 185 201 209 215 223 225 223 223 218 218 223 220 218 219 218 219 222 223 220 216
98 142 87 88 172 166 176 223 117 144 146 143 154 129 95 80 72 46 347 308 2 281 224 155 177 196 210 227 237 233 232 226 222 222 217 216 216 213 218 223 224 223 216
76 337 110 82 246 153 212 312 138 173 178 163 116 79 74 75 54 43 348 29 35 15 353 316 165 155 156 164 294 249 245 241 233 227 221 219 217 213 215 217 218 217 211
39 333 8 88 290 41 297 251 220 186 167 156 159 136 134 117 92 71 33 35 55 46 38 27 37 28 123 117 65 19 276 257 233 224 216 214 212 209 210 210 212 213 211
352 31 18 336 44 62 258 260 236 250 213 196 233 221 187 158 124 86 79 79 57 55 57 54 50 41 27 81 88 83 71 86 117 181 218 212 207 211 212 210 212 211 212
22 1 7 358 344 300 30 279 254 253 239 220 236 262 262 193 134 110 75 62 56 56 52 54 53 50 54 61 71 81 67 62 78 87 91 154 184 195 205 210 211 212 212
356 360 18 17 341 0 26 286 48 288 267 251 193 263 301 349 243 151 130 99 83 64 47 45 56 58 55 64 64 58 62 58 68 70 57 68 135 162 176 192 201 207 211
344 1 28 18 353 2 28 4 349 309 294 293 258 216 189 181 243 244 196 161 99 73 64 52 49 49 54 63 66 65 69 65 68 67 60 70 86 108 130 151 172 189 195
169 43 52 18 352 15 32 355 316 273 322 321 291 254 238 248 236 243 228 215 180 99 75 62 56 62 63 68 70 73 73 69 69 70 66 71 79 88 96 109 133 159 168
161 89 14 4 5 17 342 333 313 329 318 306 284 282 274 272 260 247 226 216 204 138 104 87 66 71 75 77 80 86 78 72 69 68 67 68 70 75 76 78 85 94 111
19 71 73 13 359 345 347 353 314 3 1 315 311 306 276 269 245 217 216 205 200 161 147 103 87 80 83 90 87 104 90 83 76 72 71 70 70 70 71 74 77 83 92
203 125 102 44 33 28 13 329 16 352 339 311 304 265 265 255 221 218 216 222 238 231 167 143 152 114 119 99 104 106 97 92 88 84 80 78 78 76 77 78 79 82 87
107 131 120 72 62 59 35 325 335 36 339 342 335 340 308 296 218 214 213 228 255 254 179 148 148 137 122 128 126 117 110 109 96 95 89 88 89 87 84 83 82 87 88
157 155 140 115 76 61 54 5 344 33 348 351 318 309 315 327 315 247 221 235 226 213 177 158 133 128 144 148 133 141 141 135 116 112 102 98 97 95 93 91 90 93 92
169 162 159 146 132 97 79 45 358 14 1 356 342 339 315 315 14 323 315 264 178 179 185 162 156 157 164 163 157 175 150 138 122 123 121 112 107 104 101 99 99 99 97
170 160 158 159 153 133 123 125 2 3 8 16 12 354 344 13 9 61 283 243 192 171 163 166 167 157 167 167 170 176 161 160 154 145 146 140 132 125 118 114 112 109 106
172 171 167 158 156 150 144 152 161 156 47 48 45 48 55 70 73 155 198 216 198 168 162 174 161 162 164 169 195 191 182 180 180 162 154 155 156 155 146 141 137 131 126
181 172 168 160 163 168 158 168 203 155 108 91 92 87 84 62 40 13 342 186 184 204 182 175 168 166 165 178 205 206 198 187 174 197 184 178 175 178 169 167 164 160 157
185 177 179 174 178 169 83 54 293 158 151 139 112 110 131 121 94 69 30 29 13 233 226 223 195 187 191 202 206 222 217 218 206 191 217 204 198 195 182 169 160 168 174
184 185 186 186 183 130 116 150 266 223 176 149 140 182 232 110 161 170 152 160 119 30 331 271 248 241 217 210 221 223 224 244 253 210 229 235 217 217 198 161 156 171 181
184 186 188 189 187 157 145 173 234 212 186 176 179 186 210 162 182 238 208 185 192 184 230 249 260 263 253 225 223 237 234 226 226 222 227 244 229 226 216 177 167 179 189
187 189 188 190 192 170 158 181 230 204 187 188 193 196 225 201 96 296 232 214 208 196 161 118 335 315 359 209 238 235 226 233 234 214 208 241 242 236 229 210 183 186 195
193 195 190 191 195 191 166 186 226 217 201 200 186 187 159 201 146 223 226 226 231 238 222 186 194 209 211 203 217 241 243 247 249 235 200 225 238 238 238 224 204 192 201
Height
1548 1548 1548 1549 1550 1551 1551 1551 1552 1552 1553 1554 1555 1556 1556 1557 1557 1558 1557 1556 1556 1557 1557 1558 1558 1559 1559 1559 1560 1560 1561 1561 1562 1562 1563 1564 1564 1565 1566 1566 1567 1568 1569
1549 1550 1550 1550 1551 1551 1552 1552 1552 1553 1553 1554 1554 1555 1555 1556 1556 1556 1557 1556 1555 1556 1556 1557 1557 1557 1558 1558 1558 1559 1559 1559 1560 1560 1561 1561 1562 1563 1564 1564 1565 1566 1567
1550 1550 1551 1551 1552 1552 1552 1552 1552 1553 1553 1554 1554 1554 1555 1555 1555 1555 1555 1555 1555 1555 1555 1555 1555 1556 1556 1556 1556 1557 1557 1557 1558 1558 1559 1559 1560 1560 1561 1562 1563 1563 1564
1551 1551 1551 1552 1551 1552 1552 1552 1553 1553 1553 1553 1554 1554 1554 1553 1553 1553 1554 1554 1554 1554 1554 1554 1554 1554 1554 1554 1554 1554 1554 1555 1555 1556 1556 1557 1557 1558 1559 1559 1560 1561 1562
1551 1551 1551 1551 1551 1552 1552 1552 1552 1552 1552 1552 1553 1552 1553 1553 1552 1552 1552 1553 1553 1552 1553 1552 1552 1552 1552 1552 1552 1552 1552 1553 1553 1554 1554 1554 1554 1555 1556 1557 1558 1558 1559
1551 1551 1552 1551 1551 1552 1551 1551 1551 1551 1551 1551 1552 1552 1552 1552 1552 1551 1551 1551 1551 1551 1551 1551 1551 1550 1549 1550 1550 1550 1550 1550 1550 1550 1551 1551 1552 1552 1553 1554 1555 1555 1556
1552 1551 1552 1550 1551 1551 1550 1550 1550 1550 1550 1550 1551 1551 1551 1551 1551 1550 1550 1550 1550 1550 1549 1549 1549 1549 1548 1547 1547 1547 1547 1548 1548 1547 1548 1548 1548 1549 1550 1551 1552 1553 1553
1551 1552 1551 1551 1550 1550 1549 1549 1549 1549 1549 1549 1550 1550 1550 1551 1550 1550 1550 1549 1549 1549 1548 1548 1547 1547 1546 1546 1545 1545 1545 1545 1546 1546 1546 1546 1546 1546 1547 1548 1549 1550 1550
1551 1551 1550 1550 1549 1549 1549 1548 1548 1548 1548 1548 1548 1549 1549 1549 1550 1550 1549 1549 1549 1548 1548 1547 1546 1545 1545 1545 1544 1543 1543 1543 1544 1544 1543 1543 1543 1544 1544 1545 1546 1547 1547
1551 1551 1550 1549 1549 1549 1548 1548 1548 1547 1547 1547 1547 1547 1548 1548 1548 1549 1549 1548 1548 1547 1547 1547 1546 1545 1545 1544 1543 1542 1542 1542 1542 1542 1542 1542 1542 1542 1543 1543 1544 1544 1544
1550 1550 1549 1549 1548 1548 1547 1547 1546 1546 1546 1546 1546 1546 1547 1547 1547 1548 1548 1548 1548 1547 1547 1546 1546 1545 1544 1544 1543 1542 1541 1541 1540 1540 1540 1540 1540 1540 1541 1541 1541 1541 1542
1550 1549 1549 1548 1548 1547 1546 1546 1545 1545 1545 1545 1545 1546 1546 1546 1546 1546 1546 1546 1546 1546 1546 1545 1545 1544 1544 1544 1542 1541 1541 1540 1540 1540 1539 1539 1539 1539 1540 1540 1539 1539 1540
1550 1548 1549 1547 1547 1546 1546 1545 1545 1544 1544 1544 1544 1544 1545 1545 1545 1545 1545 1545 1545 1545 1545 1545 1544 1544 1544 1543 1542 1541 1541 1540 1540 1539 1539 1539 1538 1538 1538 1538 1538 1538 1538
1549 1548 1547 1547 1546 1546 1545 1544 1545 1544 1543 1543 1543 1543 1543 1543 1543 1543 1543 1544 1543 1544 1544 1545 1544 1544 1543 1543 1542 1541 1541 1540 1540 1539 1539 1538 1538 1538 1538 1538 1537 1537 1537
1548 1547 1546 1546 1546 1545 1544 1544 1544 1543 1543 1543 1543 1542 1542 1542 1542 1542 1542 1542 1543 1543 1544 1543 1544 1543 1543 1542 1542 1542 1541 1540 1540 1539 1538 1538 1538 1538 1537 1537 1537 1537 1537
1546 1546 1546 1545 1545 1544 1544 1543 1543 1542 1542 1542 1541 1541 1541 1542 1541 1541 1541 1541 1542 1542 1542 1542 1542 1542 1542 1542 1541 1541 1541 1540 1539 1539 1538 1538 1538 1537 1537 1537 1537 1537 1536
1545 1545 1545 1544 1544 1544 1543 1543 1543 1542 1542 1541 1541 1540 1540 1540 1540 1540 1540 1540 1540 1541 1541 1541 1541 1541 1541 1541 1541 1541 1541 1540 1539 1538 1538 1538 1537 1537 1537 1537 1537 1537 1536
1544 1544 1544 1543 1543 1543 1542 1542 1542 1541 1541 1540 1540 1539 1539 1539 1539 1539 1539 1539 1539 1539 1540 1540 1540 1540 1540 1540 1540 1540 1541 1540 1539 1538 1538 1537 1537 1537 1537 1536 1536 1536 1536
1543 1543 1543 1542 1542 1542 1542 1541 1541 1541 1540 1540 1539 1538 1538 1538 1538 1538 1538 1538 1539 1539 1538 1539 1539 1539 1539 1540 1539 1540 1540 1539 1539 1538 1537 1537 1537 1536 1536 1536 1536 1536 1535
1542 1542 1542 1541 1541 1541 1541 1540 1540 1540 1539 1539 1538 1537 1537 1537 1537 1537 1537 1537 1537 1537 1537 1538 1538 1538 1538 1538 1539 1539 1539 1539 1539 1539 1538 1537 1536 1536 1536 1535 1535 1535 1535
1541 1540 1541 1540 1540 1540 1540 1539 1539 1539 1539 1538 1537 1537 1537 1536 1536 1536 1536 1536 1536 1537 1537 1537 1537 1538 1538 1537 1538 1538 1538 1538 1537 1538 1538 1537 1537 1536 1535 1534 1534 1534 1534
1539 1539 1539 1539 1539 1539 1539 1538 1538 1538 1537 1537 1537 1536 1536 1535 1535 1534 1534 1534 1534 1535 1536 1536 1536 1536 1536 1536 1536 1537 1537 1537 1537 1537 1537 1537 1536 1536 1535 1534 1533 1533 1532
1537 1537 1537 1538 1537 1537 1537 1537 1537 1536 1536 1536 1535 1535 1536 1535 1534 1534 1533 1533 1533 1533 1533 1534 1535 1534 1534 1534 1534 1535 1535 1535 1535 1535 1535 1535 1535 1534 1534 1532 1531 1531 1531
1535 1535 1535 1536 1536 1535 1535 1535 1535 1535 1535 1534 1534 1533 1533 1533 1532 1532 1532 1532 1532 1531 1531 1532 1532 1532 1532 1531 1531 1532 1532 1532 1532 1532 1532 1532 1532 1532 1532 1531 1529 1529 1529
1532 1532 1533 1533 1533 1533 1533 1533 1533 1533 1533 1532 1532 1532 1531 1531 1530 1530 1530 1530 1530 1530 1529 1529 1529 1529 1529 1528 1529 1530 1530 1530 1530 1530 1529 1530 1530 1530 1529 1529 1527 1526 1526
1529 1530 1530 1531 1531 1531 1531 1531 1531 1531 1531 1531 1530 1530 1529 1529 1529 1528 1528 1529 1529 1528 1528 1528 1527 1527 1527 1526 1526 1526 1527 1528 1527 1527 1526 1526 1527 1527 1527 1526 1525 1524 1524